Terminal Aerodrome Forecast
Issued by NWS

Home | Current Version | Previous Version | Text Only | Print | Product List | Glossary On
Versions: 1 2 3 4 5 6 7 8 9 10 11 12 13 14 15 16 17 18
482
FTUS42 KFFC 260335 AAA
TAFPDK
TAF AMD
KPDK 260335Z 2604/2624 10002KT P6SM SCT060
     FM261500 05005KT P6SM SCT045 PROB30 2619/2623 4SM TSRA BR
      BKN035CB=

USA.gov is the U.S. government's official web portal to all federal, state and local government web resources and services.